星链-11214 (STARLINK-11214)

导读

STARLINK-11214是美国太空探索技术公司(SpaceX)于2024年7月12日发射的星链(Starlink)低轨通信卫星。星链项目计划部署数万颗低轨卫星,为全球提供高速低延迟宽带互联网服务。作为星链星座的一员,该卫星参与构建全球覆盖的卫星通信网络,可服务偏远地区网络接入、特殊场景通信等需求,助力实现全球无缝网络覆盖目标。

基本信息
目录编号:
60244
目录名称:
STARLINK-11214
国际标识:
2024-129A
轨道中心:
EARTH
卫星名称:
星链-11214 (STARLINK-11214)
卫星全名:
星链-11214 (STARLINK-11214)
卫星状态:
已陨落 最后检测时间 2024-07-16
发射日期:
2024-07-12 UTC
国别 :
美国 (US)
星等 :
--
该卫星已列入 空间交会检测服务 Space Conjunction Data Service (SCDS) ,当前飞行风险评估等级: 无高风险
轨道信息
数据来源 国际轨道数据
星历时间: 2024-07-17T04:49:16+0800
轨道信息已过期787天
半长轴: 6515.137km
偏心率: 0.0005292
轨道倾角: 53.294°
近地点辐角 150.384°
升交点赤经 35.709°
平近点角 302.441°
近地点: 133.554km
远地点: 140.45km
周期: 87.226分钟
每日圈数: 16.508876
详细信息
卫星平台:
Starlink v2.0 mini
运营商:
太空探索技术公司
运营商所在国:
美国
制造商(研发单位):
太空探索技术公司
制造商所在国:
美国
使用方式:
暂无
卫星简介
星链(Starlink)计划是由太空探索技术公司(SpaceX)提出的一个巨型低轨卫星互联网星座项目,计划在2019年至2024年间在太空搭建由约1.2万颗卫星组成的“星链”网络,其中1584颗将部署在地球上空550千米处的近地轨道,并从2020年开始工作。该卫星仍在工作。
与全量物体交会距离演化趋势
与全量物体交会风险概率演化趋势